Location: Clatteringshaws Loch
(55.0508°N, 4.2860°W)
Time: 18:23:45
(UTC+01:00)

Daily predictions for brighter satellites

Satellite Brightness Start Highest point End
(mag) Time Altitude Azimuth Time Altitude Azimuth Time Altitude Azimuth
Cosmos 2366 rocket 4.1 18:26:01 10° S 18:32:04 59° E 18:38:06 10° NNE
METEOR-M 4.3 18:29:58 10° SE 18:35:09 53° ENE 18:40:22 10° N
Meteor 1-16 Rocket 4.1 18:30:52 10° S 18:36:12 79° E 18:41:41 10° NNE
Cosmos 2151 3.0 18:32:01 10° N 18:36:20 82° ENE 18:40:36 10° SSE
USA 234 3.4 18:30:53 10° ENE 18:37:28 80° N 18:44:02 10° W
ERS-2 2.1 18:34:31 10° SSE 18:38:13 79° ENE 18:41:57 10° NNW
BREEZE M DEB (TANK) 3.8 18:32:08 10° W 18:39:44 42° SSW 18:42:35 10° ESE
COSMO-SKYMED 1 3.6 18:37:51 10° NE 18:41:29 25° E 18:45:05 10° SSE
Meteor 2-14 Rocket 4.4 18:35:29 10° S 18:41:34 80° E 18:47:40 10° NNE
SL-8 Rocket 4.0 18:36:53 10° S 18:43:07 86° E 18:49:26 10° NNE
Cosmos 1726 3.7 18:41:04 10° SE 18:43:24 16° E 18:45:44 10° NE
IRS-1A Rocket 4.5 18:38:52 10° SSE 18:44:47 89° WSW 18:50:45 10° NNW
SMAP 3.5 18:42:39 10° S 18:47:17 68° WSW 18:51:58 10° NNW
EO 1 Del DPAF 4.1 18:44:20 10° NE 18:47:45 29° E 18:51:08 10° SSE
Meteor 2-16 Rocket 4.4 18:41:59 10° S 18:48:05 78° E 18:54:16 10° NNE
Landsat 4 4.0 18:45:30 10° NNE 18:49:07 45° E 18:52:42 10° S
Cosmos 1805 Rocket 3.9 18:46:26 10° N 18:50:39 44° ENE 18:54:53 10° SE
Meteor 2-1 Rocket 4.4 18:45:59 10° S 18:51:42 56° E 18:57:29 10° NNE
Resurs 01 Rocket 3.4 18:50:57 10° E 18:53:20 15° NE 18:55:47 10° NNE
Cosmos-2242 3.7 18:50:39 10° SSW 18:54:51 58° WNW 18:59:05 10° N
Cosmos 1461 3.5 18:54:28 10° WSW 18:58:34 55° NW 19:02:54 10° NE
Meteor 1-28 Rocket 3.3 18:54:53 10° NNE 18:58:38 55° E 19:02:21 10° S
Cosmos 1666 Rocket 4.0 18:56:06 10° N 19:00:10 37° ENE 19:04:12 10° SE
Lacrosse 4 Rocket 3.7 18:57:47 10° NW 19:00:32 16° N 19:03:13 10° NNE
CZ-4 R/B 2.2 18:57:09 10° S 19:01:16 59° WSW 19:05:20 10° NNW
MTI 4.0 18:59:58 10° NNE 19:03:06 46° E 19:06:12 10° S
MONITOR-E 4.0 19:00:44 10° SSE 19:03:49 72° ENE 19:06:54 10° N
Cosmos 1633 Rocket 3.7 19:00:01 10° N 19:04:06 35° ENE 19:08:11 10° SE
Iridium 4 Rocket 4.1 18:58:49 10° SSE 19:04:17 46° E 19:09:55 10° NNE
Cosmos 2237 Rocket 2.3 18:59:00 10° NNW 19:04:41 60° NE 19:10:19 10° SE
Cosmos 1821 Rocket 4.4 19:01:54 10° SSE 19:07:38 41° E 19:13:29 10° NNE
YAOGAN 1 3.0 19:05:14 10° S 19:09:32 68° WSW 19:13:54 10° NNW
Cosmos 1626 4.1 19:06:16 10° NNW 19:09:42 34° W 19:13:06 10° SSW
Cosmos 1315 Rocket 3.5 19:05:41 10° NNW 19:09:43 61° W 19:13:47 10° S
Abrixas rocket 4.0 19:08:21 10° WSW 19:11:05 24° S 19:13:49 10° SE
Aureole 2 Rocket 2.9 19:07:44 10° NNW 19:11:37 78° WSW 19:15:40 10° SSE
SPOT 3 Rocket 3.6 19:08:32 10° SSE 19:13:45 86° ENE 19:19:02 10° NNW
Cosmos 44 Rocket 3.9 19:10:19 10° S 19:14:34 35° ESE 19:18:02 14° ENE
Cosmos 1110 Rocket 4.0 19:10:27 10° NNW 19:15:48 72° ENE 19:21:06 10° SE
Cosmos 2218 Rocket 4.3 19:10:44 10° SSW 19:16:50 70° WNW 19:23:02 10° N
SL-16 R/B 2.7 19:12:30 10° NNW 19:17:54 41° NE 19:22:17 15° ESE
Cosmos 2084 4.2 19:14:27 10° WNW 19:18:05 45° SW 19:21:46 10° SSE
Cosmos 2227 Rocket 3.5 19:15:47 10° SE 19:19:23 18° E 19:20:26 17° E
GENESIS II 4.2 19:18:25 10° SW 19:22:23 75° SE 19:25:37 15° NE
USA 116 4.5 19:17:17 10° NNE 19:22:30 90° SSW 19:27:53 10° SSW
CZ-2C R/B 3.7 19:19:52 10° NNE 19:24:26 84° WNW 19:28:54 10° SSW
Cosmos 2221 2.5 19:22:40 10° S 19:26:59 67° E 19:31:22 10° NNE
ATLAS 5 CENTAUR R/B 3.1 19:22:13 10° WNW 19:27:07 36° N 19:31:03 17° ENE
GRACE-2 3.8 19:24:53 10° S 19:27:27 72° W 19:30:01 10° N
Cosmos 2098 Rocket 3.9 19:23:53 10° S 19:29:04 58° E 19:35:34 10° NNE
Cosmos 1980 3.7 19:23:43 10° NNW 19:29:25 85° ENE 19:35:05 10° SE
Cosmos 1908 3.2 19:25:51 10° S 19:29:46 85° ESE 19:33:41 10° NNE
SKYMED 2 3.5 19:25:31 10° NNE 19:29:52 64° ESE 19:34:11 10° S
Cosmos 2123 Rocket 4.0 19:24:35 10° N 19:30:48 63° ENE 19:37:01 10° SSE
FREGAT/IRIS 2.9 19:28:39 15° SE 19:30:50 44° ENE 19:33:43 10° N
Cosmos 158 Rocket 3.9 19:26:39 10° SSW 19:31:44 66° ESE 19:37:00 10° NNE
GRACE-1 4.4 19:31:22 10° SSW 19:33:55 55° W 19:36:29 10° N
Lacrosse 5 rocket 1.5 19:30:36 10° W 19:35:01 67° N 19:37:18 26° E
GP-B 4.2 19:31:38 10° N 19:35:56 49° W 19:40:13 10° SSW
Aureole 1 Rocket 4.5 19:31:40 10° SW 19:36:33 40° NW 19:40:21 10° NNE
SJ-6B 3.0 19:33:58 16° SE 19:36:40 43° ENE 19:40:16 10° N
Cosmos 2082 Rocket 4.2 19:34:03 10° WNW 19:38:19 21° NNW 19:42:36 10° NNE
H-2A R/B 2.8 19:35:56 10° SSE 19:39:47 58° ENE 19:43:41 10° N
APEX 2.4 19:37:01 10° SSW 19:39:47 53° ESE 19:40:20 43° ENE
NOSS 0 Rocket 4.2 19:33:40 10° NW 19:39:50 70° WSW 19:45:56 10° SSE
COSMOS 2428 4.2 19:35:35 10° NW 19:40:49 39° WSW 19:46:02 10° S
Meteor 2-3 Rocket 4.0 19:35:44 10° N 19:41:18 46° ENE 19:46:17 12° SE
FENGYUN 3A 3.7 19:36:01 10° SSE 19:41:26 82° WSW 19:46:55 10° NNW
H-2A R/B 4.2 19:40:59 11° NE 19:41:31 11° NE 19:42:47 10° NNE
Cosmos 1605 Rocket 4.3 19:36:37 10° SSE 19:42:11 39° E 19:47:47 10° NNE
Cosmos 1048 Rocket 3.9 19:37:27 10° SSW 19:42:32 67° ESE 19:47:38 10° NNE
Cosmos 2333 Rocket 2.8 19:38:08 10° NW 19:43:48 61° WSW 19:49:27 10° SSE
Meteor 2-10 4.2 19:40:00 10° SSE 19:44:50 46° E 19:49:49 10° NNE
ALOS 2.6 19:43:06 10° S 19:47:46 70° WSW 19:52:28 10° NNW
Envisat 3.6 19:47:11 25° ESE 19:49:19 37° ENE 19:53:57 10° N
Cosmos 2219 3.2 19:45:06 10° SSW 19:50:45 61° ESE 19:56:24 10° NE
Cosmos 1892 3.1 19:47:30 10° N 19:51:09 40° ENE 19:51:45 37° E
Cosmos 1300 2.8 19:47:56 10° S 19:51:40 52° E 19:55:25 10° NNE
Cosmos 2251 Rocket 4.4 19:48:17 10° SSE 19:52:19 27° ESE 19:52:19 27° ESE
Cosmos 2297 Rocket 3.2 19:51:35 10° SSE 19:55:12 25° ESE 19:55:12 25° ESE
Cosmos 1470 Rocket 3.6 19:54:20 10° N 19:58:48 59° ENE 20:01:37 21° SSE
Thor Agena Rocket 3.5 20:01:00 10° NNE 20:06:03 55° ESE 20:11:01 10° S
Cosmos 1447 Rocket 4.5 20:01:45 10° N 20:08:06 67° ENE 20:14:21 10° SSE
CZ-2D R/B 3.3 20:07:53 50° ESE 20:08:31 58° ENE 20:12:22 10° N
Cosmos 2219 Rocket 3.7 20:04:56 10° NW 20:10:00 36° WSW 20:15:05 10° S
Sich 1 3.8 20:06:18 10° NNW 20:10:35 54° W 20:14:52 10° S
SL-8 R/B 4.5 20:08:48 10° WSW 20:13:17 38° S 20:14:26 33° SE
Cosmos 44 2.9 20:10:50 10° SW 20:15:10 88° SE 20:16:42 40° NE
CZ-4C R/B 2.2 20:11:33 10° SW 20:16:57 68° SE 20:20:11 29° ENE
COSMO-SKYMED 1 3.4 20:13:41 10° N 20:17:55 50° WNW 20:22:07 10° SW
Cosmos 1726 2.7 20:14:40 10° SSW 20:18:18 57° WNW 20:21:58 10° N
SAR-Lupe-3 4.4 20:16:59 26° NNE 20:18:57 83° ESE 20:22:32 10° SSW
USA 234 3.2 20:17:16 34° E 20:20:25 81° NNE 20:27:01 10° WNW
Cosmos 1825 4.2 20:23:40 10° N 20:24:47 17° NNE 20:24:47 17° NNE
Resurs 01 Rocket 1.5 20:28:32 63° SE 20:29:06 73° ENE 20:33:32 10° NNW
Resurs 1-3 3.4 20:30:01 67° ESE 20:30:21 71° ENE 20:34:46 10° NNW
HJ-1C 4.2 20:31:09 38° SSW 20:32:06 52° W 20:35:29 10° NNW
Meteor 2-2 Rocket 4.1 20:27:15 10° S 20:32:54 81° ESE 20:38:34 10° NNE
MOS 1-B Rocket 4.0 20:31:38 16° SSE 20:36:29 84° WSW 20:43:10 10° NNW
Lacrosse 4 Rocket 3.5 20:38:00 10° NNW 20:40:51 17° NNE 20:40:54 17° NNE
Cosmos 2228 Rocket 3.5 20:40:42 10° S 20:46:18 54° NNE 20:49:53 10° NNE
Cosmos 1459 Rocket 4.4 20:46:24 43° ENE 20:46:24 43° ENE 20:51:21 10° NNE
Meteor 1-27 4.2 20:39:39 10° S 20:45:21 66° E 20:51:09 10° NNE
Cosmos 1933 Rocket 3.9 20:41:42 10° NNW 20:46:02 62° W 20:47:30 38° SSW
Cosmos 1328 Rocket 3.6 20:43:57 10° SSW 20:48:21 79° W 20:52:45 10° N
Cosmos 2237 Rocket 3.7 20:43:25 10° NW 20:48:31 34° WSW 20:53:35 10° S
Cosmos 1934 Rocket 4.5 20:43:10 10° SSW 20:49:29 62° WNW 20:55:49 10° N
Cosmos 1939 Rocket 4.0 20:53:46 38° N 20:53:46 38° N 20:56:26 10° N
Spot 2 Rocket 3.4 20:51:51 59° S 20:52:51 84° WSW 20:57:59 10° NNW
Cosmos 494 Rocket 3.8 20:48:11 10° SSW 20:53:19 90° SE 20:54:33 54° NNE
Cosmos 1943 3.7 20:48:22 10° NNW 20:53:39 43° NE 20:53:39 43° NE
Cosmos 44 Rocket 3.7 20:51:18 10° WSW 20:55:56 58° NW 20:56:46 50° N
Cosmos 1992 Rocket 3.9 20:56:18 10° NNW 21:01:34 88° WSW 21:01:40 87° SSW
SL-16 R/B 2.7 20:56:42 10° NW 21:02:15 55° WSW 21:04:12 37° S
Cosmos 2227 Rocket 2.0 20:56:55 10° SSW 21:02:20 76° SSE 21:02:20 76° SSE
Terra 4.3 21:04:54 11° NNE 21:04:54 11° NNE 21:05:10 10° NNE
Cosmos 1603 3.6 20:57:20 10° NNW 21:03:02 72° NE 21:03:02 72° NE
BREEZE-M DEB (TANK) 4.5 21:03:32 10° W 21:08:57 23° SSW 21:09:09 23° SSW
ATLAS 5 CENTAUR R/B 2.4 21:07:10 10° NW 21:12:35 62° NNE 21:12:35 62° NNE
Lacrosse 5 rocket 2.6 21:10:05 10° WNW 21:12:59 41° W 21:12:59 41° W
Geosat 4.3 21:17:22 61° NNW 21:17:22 61° NNW 21:21:34 10° NNW
H-2A R/B 3.5 21:21:37 27° NNE 21:21:37 27° NNE 21:24:32 10° N
Cosmos 2100 Rocket 4.1 21:22:04 62° NNE 21:22:04 62° NNE 21:27:12 10° NNE
Tsikada Rocket 4.2 21:17:14 10° N 21:22:34 58° NNE 21:22:34 58° NNE
Cosmos 2082 Rocket 4.3 21:21:05 10° NNW 21:24:40 17° N 21:26:05 15° NNE
Envisat 3.9 21:27:24 41° SW 21:28:18 45° W 21:33:12 10° NNW
ERS-1 Rocket 4.3 21:36:29 32° N 21:36:29 32° N 21:39:13 10° NNW
Cosmos 2251 Rocket 4.5 21:29:21 10° SW 21:32:55 42° WSW 21:32:55 42° WSW
Cosmos 2219 4.5 21:29:53 10° WSW 21:35:15 38° NW 21:38:58 18° NNE
Cosmos 2297 Rocket 3.4 21:34:03 10° SW 21:37:07 33° SW 21:37:07 33° SW
ARGOS 4.3 21:45:43 36° N 21:45:43 36° N 21:48:55 10° NNW
Cosmos 2173 Rocket 4.5 21:45:44 51° N 21:45:44 51° N 21:50:16 10° N
NOSS 3-3 (A) 4.5 21:46:29 10° NW 21:53:13 64° NNE 21:53:13 64° NNE
NOSS 3-3 (C) 4.5 21:46:34 10° NW 21:53:19 64° NNE 21:53:19 64° NNE
USA 234 3.6 22:04:37 57° WSW 22:04:37 57° WSW 22:10:11 10° WNW
CZ-4C R/B 3.1 22:00:13 10° W 22:05:24 50° NW 22:05:24 50° NW
Resurs 01 Rocket 4.1 22:06:07 18° W 22:06:07 18° W 22:09:12 10° NW
Lacrosse 4 Rocket 4.4 22:16:41 10° NNW 22:17:13 13° NNW 22:17:13 13° NNW
Cosmos 2227 Rocket 4.3 22:42:09 10° W 22:44:15 20° W 22:44:15 20° W
ATLAS 5 CENTAUR R/B 4.2 22:51:55 10° NW 22:54:08 24° WNW 22:54:08 24° WNW
H-2A R/B 4.3 23:02:15 21° NNW 23:02:15 21° NNW 23:04:10 10° NNW
